Cloud_Cover
5 0 4 41 11 5 2 0 0 0 0 0 0 0 0 0 0 0 1 3 4 4 3 0 0 0 0 0 0 94 93 13 1 0 1 57 40 4 99 100 100 3 0 4 3
1 3 5 24 95 100 1 0 0 0 0 0 0 0 0 0 0 0 0 0 0 0 0 0 0 0 0 0 0 71 100 5 15 54 4 0 1 0 6 96 100 0 0 0 5
5 5 5 76 89 96 2 0 0 0 0 0 0 0 0 0 0 0 0 0 0 0 0 0 0 0 0 0 0 0 67 0 4 74 79 63 0 0 0 4 71 0 0 4 7
5 3 6 56 93 19 1 0 0 0 0 0 0 0 0 0 0 0 0 0 0 0 0 0 0 0 0 0 0 4 0 34 69 5 56 100 16 0 0 0 2 0 0 6 25
75 33 99 100 7 5 5 0 0 0 0 0 0 0 0 0 0 0 0 0 0 0 0 0 0 0 0 0 0 0 0 1 4 31 10 99 36 3 0 0 0 0 2 16 11
55 100 100 31 37 5 5 5 0 0 0 0 0 0 0 0 0 0 0 0 0 0 0 0 0 0 0 0 0 0 0 0 3 5 2 48 98 100 0 0 0 0 57 5 100
62 97 76 79 91 5 5 3 0 0 0 0 0 0 0 0 0 0 0 0 0 0 0 0 0 0 0 0 0 0 0 0 0 0 5 0 57 26 0 0 0 0 2 16 96
6 92 100 100 90 13 5 0 0 0 0 0 0 0 0 0 0 0 0 0 0 0 0 0 0 0 0 0 0 0 1 3 0 2 0 4 6 4 4 0 0 0 0 10 41
54 6 96 100 96 21 5 0 0 0 0 0 0 0 0 0 0 0 0 0 0 0 0 0 0 3 64 97 53 78 41 4 2 46 85 8 25 0 20 3 0 0 0 0 5
5 73 100 100 100 28 2 0 0 0 0 0 0 0 0 0 0 0 0 0 0 0 0 0 26 95 100 100 96 83 81 52 99 2 96 26 89 5 100 39 0 0 0 0 2
100 100 100 97 53 5 3 0 0 0 0 0 0 0 0 0 0 0 0 0 0 0 0 0 2 17 100 100 100 100 100 96 5 75 21 90 100 11 64 99 12 5 25 64 98
100 100 100 75 8 3 5 0 0 0 0 0 0 0 0 0 0 0 0 0 0 0 0 14 31 44 100 100 100 100 54 70 0 100 45 93 100 5 100 100 100 100 100 100 100
100 62 92 10 5 5 5 0 0 0 0 0 0 0 0 0 0 0 0 0 0 0 2 27 57 68 4 32 9 64 100 73 84 54 78 89 58 5 89 100 100 100 100 100 100
99 94 26 23 6 15 4 0 0 0 0 0 0 0 0 0 0 0 0 0 0 0 0 6 49 2 0 0 17 83 12 40 68 20 99 100 100 64 92 100 100 100 100 100 100
100 100 5 8 5 27 1 0 0 0 0 0 0 0 0 0 0 0 0 0 0 0 0 26 6 2 2 17 4 24 0 0 2 31 74 98 100 100 100 100 100 100 100 100 100
84 92 12 5 5 9 0 0 0 0 0 0 0 0 0 0 0 0 0 0 0 0 0 0 1 12 43 57 44 0 0 5 16 70 98 92 100 100 100 100 100 100 100 100 100
5 15 98 5 5 5 0 0 0 0 0 0 0 0 0 0 0 0 0 2 5 3 2 0 0 6 1 12 67 10 4 51 84 100 39 100 100 100 100 100 100 100 100 100 100
5 7 20 5 5 5 2 0 0 0 0 0 0 0 0 0 0 0 0 27 4 5 5 97 39 62 19 54 4 7 20 46 93 100 100 100 100 100 100 100 100 100 100 100 100
79 5 5 5 5 5 4 0 0 0 0 0 0 0 0 0 0 0 4 22 5 8 54 93 7 71 23 50 4 0 50 100 96 100 100 100 100 100 100 100 92 100 100 100 100
47 69 7 5 5 5 5 3 5 0 0 0 0 0 0 0 0 0 1 4 1 4 95 77 89 2 3 4 44 5 40 71 88 100 100 100 93 98 100 100 100 100 100 100 100
74 78 94 6 5 5 5 5 4 0 0 0 0 0 0 0 0 1 0 31 4 0 5 98 94 5 1 23 97 9 14 77 91 100 100 99 100 100 100 100 100 100 100 100 100
100 80 24 54 7 5 5 5 0 0 0 0 0 0 0 0 0 0 0 0 0 4 4 70 99 65 33 56 44 5 5 41 97 100 95 100 80 100 100 100 100 100 100 100 100
30 54 45 11 5 6 5 5 0 0 2 0 0 0 0 0 0 0 0 0 0 5 12 3 5 66 1 2 4 27 14 8 69 100 99 99 100 100 100 100 100 100 100 100 100
65 10 33 6 5 5 29 5 0 5 5 0 0 0 0 0 0 0 0 0 0 4 1 0 3 73 83 44 24 55 57 11 5 66 64 79 99 100 100 100 100 100 100 100 100
5 31 96 5 10 6 20 5 0 5 5 0 0 0 0 2 0 0 0 0 0 0 0 0 0 1 31 5 5 66 56 5 11 46 21 23 98 100 100 100 98 94 100 100 100
5 71 93 5 5 5 5 5 5 5 5 0 0 0 0 0 0 0 4 2 5 0 3 0 0 0 4 5 5 46 91 76 5 66 19 96 77 100 100 60 100 100 100 100 100
83 39 88 12 5 5 5 5 5 5 5 0 0 0 0 2 0 0 0 0 3 5 25 3 4 3 43 0 0 43 25 10 5 40 6 10 3 94 100 99 100 100 100 100 100